TAIP55 YMES-YMLT

Flight info

Callsign TAIP55
Flight time 1h 33m
Altitude 2500
Route YMES-VFR-YMHB
Aircraft EC45/L-G/C

Departure

Time 2026-04-20 15:24
Airport RAAF Base East Sale (YMES)

Arrival

Time 2026-04-20 16:57
Airport Launceston Airport (YMLT)
Time Latitude Longitude Altitude Speed Heading
2026-04-20 15:21 -38.09856 147.13046 27 ft 0 kts
2026-04-20 15:23 -38.09852 147.13050 33 ft 2 kts 31°
2026-04-20 15:23 -38.09891 147.13037 217 ft 20 kts 148°
2026-04-20 15:24 -38.10137 147.13071 589 ft 57 kts 156°
2026-04-20 15:24 -38.10669 147.13123 859 ft 91 kts 173°
2026-04-20 15:24 -38.11264 147.13196 1079 ft 83 kts 154°
2026-04-20 15:24 -38.11810 147.13486 1202 ft 86 kts 155°
2026-04-20 15:25 -38.12370 147.13749 1346 ft 85 kts 162°
2026-04-20 15:25 -38.12934 147.13967 1499 ft 85 kts 166°
2026-04-20 15:25 -38.13506 147.14151 1649 ft 85 kts 169°
2026-04-20 15:25 -38.14075 147.14303 1798 ft 84 kts 172°
2026-04-20 15:26 -38.14653 147.14431 1947 ft 85 kts 174°
2026-04-20 15:26 -38.15238 147.14539 2097 ft 85 kts 175°
2026-04-20 15:26 -38.15824 147.14629 2247 ft 85 kts 176°
2026-04-20 15:26 -38.16412 147.14705 2400 ft 85 kts 177°
2026-04-20 15:27 -38.17004 147.14770 2526 ft 85 kts 177°
2026-04-20 15:27 -38.17685 147.14830 2501 ft 112 kts 178°
2026-04-20 15:27 -38.18529 147.14887 2500 ft 129 kts 178°
2026-04-20 15:27 -38.19450 147.14940 2503 ft 134 kts 178°
2026-04-20 15:28 -38.20393 147.14989 2501 ft 136 kts 179°
2026-04-20 15:28 -38.21333 147.15030 2501 ft 137 kts 180°
2026-04-20 15:28 -38.22284 147.15067 2500 ft 137 kts 180°
2026-04-20 15:28 -38.23236 147.15097 2500 ft 136 kts 180°
2026-04-20 15:29 -38.24185 147.15123 2500 ft 136 kts 181°
2026-04-20 15:29 -38.25139 147.15147 2500 ft 137 kts 180°
2026-04-20 15:29 -38.26093 147.15169 2500 ft 137 kts 180°
2026-04-20 15:29 -38.27043 147.15190 2500 ft 136 kts 181°
2026-04-20 15:30 -38.27993 147.15209 2500 ft 136 kts 181°
2026-04-20 15:30 -38.28942 147.15227 2500 ft 137 kts 181°
2026-04-20 15:30 -38.29881 147.15245 2500 ft 136 kts 181°
2026-04-20 15:30 -38.30830 147.15264 2500 ft 136 kts 181°
2026-04-20 15:31 -38.31779 147.15281 2500 ft 136 kts 181°
2026-04-20 15:31 -38.32422 147.15293 2500 ft 137 kts 181°
2026-04-20 15:31 -38.33362 147.15310 2500 ft 136 kts 181°
2026-04-20 15:31 -38.34312 147.15327 2500 ft 136 kts 181°
2026-04-20 15:32 -38.35261 147.15344 2500 ft 136 kts 181°
2026-04-20 15:32 -38.36210 147.15361 2500 ft 136 kts 181°
2026-04-20 15:32 -38.37161 147.15377 2501 ft 137 kts 181°
2026-04-20 15:32 -38.38112 147.15395 2500 ft 137 kts 181°
2026-04-20 15:33 -38.39063 147.15412 2500 ft 136 kts 181°
2026-04-20 15:33 -38.40011 147.15430 2500 ft 136 kts 181°
2026-04-20 15:33 -38.40962 147.15447 2500 ft 136 kts 181°
2026-04-20 15:33 -38.41900 147.15464 2500 ft 136 kts 181°
2026-04-20 15:34 -38.42851 147.15481 2500 ft 136 kts 181°
2026-04-20 15:34 -38.43799 147.15498 2500 ft 136 kts 181°
2026-04-20 15:34 -38.44750 147.15515 2500 ft 137 kts 181°
2026-04-20 15:34 -38.45700 147.15532 2500 ft 136 kts 181°
2026-04-20 15:35 -38.46648 147.15549 2500 ft 136 kts 181°
2026-04-20 15:35 -38.47598 147.15566 2500 ft 136 kts 181°
2026-04-20 15:35 -38.48548 147.15583 2500 ft 136 kts 181°
2026-04-20 15:35 -38.49496 147.15600 2500 ft 136 kts 181°
2026-04-20 15:36 -38.50446 147.15617 2500 ft 136 kts 181°
2026-04-20 15:36 -38.51395 147.15635 2500 ft 136 kts 181°
2026-04-20 15:36 -38.52329 147.15651 2500 ft 136 kts 181°
2026-04-20 15:36 -38.53278 147.15669 2500 ft 136 kts 181°
2026-04-20 15:37 -38.54232 147.15686 2500 ft 136 kts 181°
2026-04-20 15:37 -38.55180 147.15703 2500 ft 136 kts 181°
2026-04-20 15:37 -38.56129 147.15719 2500 ft 136 kts 181°
2026-04-20 15:37 -38.57079 147.15736 2500 ft 137 kts 181°
2026-04-20 15:38 -38.58028 147.15754 2500 ft 136 kts 181°
2026-04-20 15:38 -38.58976 147.15772 2500 ft 136 kts 181°
2026-04-20 15:38 -38.59923 147.15788 2500 ft 136 kts 181°
2026-04-20 15:38 -38.60872 147.15805 2500 ft 136 kts 181°
2026-04-20 15:39 -38.61821 147.15823 2500 ft 136 kts 181°
2026-04-20 15:39 -38.62770 147.15840 2500 ft 136 kts 181°
2026-04-20 15:39 -38.63707 147.15857 2500 ft 136 kts 181°
2026-04-20 15:39 -38.64658 147.15874 2500 ft 136 kts 181°
2026-04-20 15:40 -38.65606 147.15891 2500 ft 136 kts 181°
2026-04-20 15:40 -38.66556 147.15908 2500 ft 136 kts 181°
2026-04-20 15:40 -38.67506 147.15925 2500 ft 136 kts 181°
2026-04-20 15:40 -38.68456 147.15943 2500 ft 136 kts 181°
2026-04-20 15:41 -38.69407 147.15960 2500 ft 136 kts 181°
2026-04-20 15:41 -38.70357 147.15978 2500 ft 136 kts 181°
2026-04-20 15:41 -38.71303 147.15995 2501 ft 136 kts 181°
2026-04-20 15:41 -38.72238 147.16013 2499 ft 136 kts 181°
2026-04-20 15:42 -38.73187 147.16030 2500 ft 136 kts 181°
2026-04-20 15:42 -38.74135 147.16047 2500 ft 136 kts 181°
2026-04-20 15:42 -38.75085 147.16064 2500 ft 136 kts 181°
2026-04-20 15:42 -38.76035 147.16080 2500 ft 136 kts 181°
2026-04-20 15:43 -38.76987 147.16098 2500 ft 136 kts 181°
2026-04-20 15:43 -38.77925 147.16115 2500 ft 136 kts 181°
2026-04-20 15:43 -38.78874 147.16132 2500 ft 136 kts 181°
2026-04-20 15:43 -38.79825 147.16149 2500 ft 136 kts 181°
2026-04-20 15:44 -38.80776 147.16166 2500 ft 136 kts 181°
2026-04-20 15:44 -38.81725 147.16184 2500 ft 136 kts 181°
2026-04-20 15:44 -38.82661 147.16201 2500 ft 136 kts 181°
2026-04-20 15:44 -38.83610 147.16218 2500 ft 136 kts 181°
2026-04-20 15:45 -38.84556 147.16236 2500 ft 136 kts 181°
2026-04-20 15:45 -38.85506 147.16253 2500 ft 136 kts 181°
2026-04-20 15:45 -38.86453 147.16270 2500 ft 136 kts 181°
2026-04-20 15:45 -38.87402 147.16287 2500 ft 136 kts 181°
2026-04-20 15:46 -38.88350 147.16304 2500 ft 136 kts 181°
2026-04-20 15:46 -38.89299 147.16322 2500 ft 136 kts 181°
2026-04-20 15:46 -38.90251 147.16339 2500 ft 136 kts 181°
2026-04-20 15:46 -38.91186 147.16356 2500 ft 136 kts 181°
2026-04-20 15:47 -38.92135 147.16373 2500 ft 136 kts 181°
2026-04-20 15:47 -38.93086 147.16390 2500 ft 136 kts 181°
2026-04-20 15:47 -38.94034 147.16408 2500 ft 136 kts 181°
2026-04-20 15:47 -38.94982 147.16425 2500 ft 136 kts 181°
2026-04-20 15:48 -38.95929 147.16442 2500 ft 136 kts 181°
2026-04-20 15:48 -38.96877 147.16460 2500 ft 136 kts 181°
2026-04-20 15:48 -38.97823 147.16477 2500 ft 136 kts 181°
2026-04-20 15:48 -38.98773 147.16494 2500 ft 136 kts 181°
2026-04-20 15:49 -38.99720 147.16512 2500 ft 136 kts 181°
2026-04-20 15:49 -39.00669 147.16529 2500 ft 136 kts 181°
2026-04-20 15:49 -39.01616 147.16546 2500 ft 136 kts 181°
2026-04-20 15:49 -39.02553 147.16564 2500 ft 136 kts 181°
2026-04-20 15:50 -39.03499 147.16581 2500 ft 136 kts 181°
2026-04-20 15:50 -39.04448 147.16598 2500 ft 136 kts 181°
2026-04-20 15:50 -39.05397 147.16615 2500 ft 136 kts 181°
2026-04-20 15:50 -39.06345 147.16633 2500 ft 136 kts 181°
2026-04-20 15:51 -39.07291 147.16650 2500 ft 136 kts 181°
2026-04-20 15:51 -39.08241 147.16668 2500 ft 136 kts 181°
2026-04-20 15:51 -39.09189 147.16685 2500 ft 136 kts 181°
2026-04-20 15:51 -39.10138 147.16702 2500 ft 136 kts 181°
2026-04-20 15:52 -39.11088 147.16719 2500 ft 136 kts 181°
2026-04-20 15:52 -39.12024 147.16737 2500 ft 136 kts 181°
2026-04-20 15:52 -39.12972 147.16754 2500 ft 136 kts 181°
2026-04-20 15:53 -39.14872 147.16789 2500 ft 136 kts 181°
2026-04-20 15:53 -39.15819 147.16806 2500 ft 136 kts 181°
2026-04-20 15:53 -39.16758 147.16823 2500 ft 136 kts 181°
2026-04-20 15:53 -39.17707 147.16841 2500 ft 136 kts 181°
2026-04-20 15:54 -39.18658 147.16859 2500 ft 136 kts 181°
2026-04-20 15:54 -39.19608 147.16876 2500 ft 136 kts 181°
2026-04-20 15:54 -39.20543 147.16893 2500 ft 136 kts 181°
2026-04-20 15:54 -39.21491 147.16911 2500 ft 136 kts 181°
2026-04-20 15:55 -39.22439 147.16928 2500 ft 136 kts 181°
2026-04-20 15:55 -39.23388 147.16945 2500 ft 136 kts 181°
2026-04-20 15:55 -39.24338 147.16963 2500 ft 136 kts 181°
2026-04-20 15:55 -39.25288 147.16981 2500 ft 136 kts 181°
2026-04-20 15:56 -39.26223 147.16998 2500 ft 136 kts 181°
2026-04-20 15:56 -39.27170 147.17015 2500 ft 136 kts 181°
2026-04-20 15:56 -39.28117 147.17033 2500 ft 136 kts 181°
2026-04-20 15:56 -39.29066 147.17050 2500 ft 136 kts 181°
2026-04-20 15:57 -39.30014 147.17067 2500 ft 136 kts 181°
2026-04-20 15:57 -39.30961 147.17085 2500 ft 136 kts 181°
2026-04-20 15:57 -39.31907 147.17103 2500 ft 136 kts 181°
2026-04-20 15:57 -39.32856 147.17120 2500 ft 136 kts 181°
2026-04-20 15:58 -39.33803 147.17137 2500 ft 136 kts 181°
2026-04-20 15:58 -39.34738 147.17154 2500 ft 136 kts 181°
2026-04-20 15:58 -39.35687 147.17172 2500 ft 136 kts 181°
2026-04-20 15:58 -39.36637 147.17190 2500 ft 136 kts 181°
2026-04-20 15:59 -39.37585 147.17207 2500 ft 136 kts 181°
2026-04-20 15:59 -39.38531 147.17225 2500 ft 136 kts 181°
2026-04-20 15:59 -39.39480 147.17242 2500 ft 136 kts 181°
2026-04-20 15:59 -39.40415 147.17259 2500 ft 136 kts 181°
2026-04-20 16:00 -39.41361 147.17277 2500 ft 136 kts 181°
2026-04-20 16:00 -39.42309 147.17294 2500 ft 136 kts 181°
2026-04-20 16:00 -39.43256 147.17312 2500 ft 136 kts 181°
2026-04-20 16:00 -39.44201 147.17330 2500 ft 136 kts 181°
2026-04-20 16:01 -39.45149 147.17347 2500 ft 136 kts 181°
2026-04-20 16:01 -39.46098 147.17364 2500 ft 136 kts 181°
2026-04-20 16:01 -39.47046 147.17382 2500 ft 136 kts 181°
2026-04-20 16:01 -39.47994 147.17400 2500 ft 136 kts 181°
2026-04-20 16:02 -39.48931 147.17417 2500 ft 136 kts 181°
2026-04-20 16:02 -39.49879 147.17435 2500 ft 136 kts 181°
2026-04-20 16:02 -39.50824 147.17452 2500 ft 136 kts 181°
2026-04-20 16:02 -39.51771 147.17470 2500 ft 136 kts 181°
2026-04-20 16:03 -39.52718 147.17487 2500 ft 136 kts 181°
2026-04-20 16:03 -39.53666 147.17505 2500 ft 136 kts 181°
2026-04-20 16:03 -39.54615 147.17523 2500 ft 136 kts 181°
2026-04-20 16:03 -39.55561 147.17540 2500 ft 136 kts 181°
2026-04-20 16:04 -39.56507 147.17558 2500 ft 136 kts 181°
2026-04-20 16:04 -39.57442 147.17575 2500 ft 136 kts 181°
2026-04-20 16:04 -39.58389 147.17592 2500 ft 136 kts 181°
2026-04-20 16:04 -39.59336 147.17610 2500 ft 136 kts 181°
2026-04-20 16:05 -39.60283 147.17628 2500 ft 136 kts 181°
2026-04-20 16:05 -39.61231 147.17645 2500 ft 136 kts 181°
2026-04-20 16:05 -39.62180 147.17663 2500 ft 136 kts 181°
2026-04-20 16:05 -39.63125 147.17681 2500 ft 136 kts 181°
2026-04-20 16:06 -39.64072 147.17698 2500 ft 136 kts 181°
2026-04-20 16:06 -39.65019 147.17716 2500 ft 136 kts 181°
2026-04-20 16:06 -39.65951 147.17733 2500 ft 136 kts 181°
2026-04-20 16:06 -39.66899 147.17751 2500 ft 136 kts 181°
2026-04-20 16:07 -39.67849 147.17769 2500 ft 136 kts 181°
2026-04-20 16:07 -39.68796 147.17786 2500 ft 136 kts 181°
2026-04-20 16:07 -39.69743 147.17804 2500 ft 136 kts 181°
2026-04-20 16:07 -39.70690 147.17822 2500 ft 136 kts 181°
2026-04-20 16:08 -39.71626 147.17839 2500 ft 136 kts 181°
2026-04-20 16:08 -39.72573 147.17857 2500 ft 136 kts 181°
2026-04-20 16:08 -39.73521 147.17875 2500 ft 136 kts 181°
2026-04-20 16:08 -39.74468 147.17893 2500 ft 136 kts 181°
2026-04-20 16:09 -39.75413 147.17910 2499 ft 136 kts 181°
2026-04-20 16:09 -39.76361 147.17927 2500 ft 136 kts 181°
2026-04-20 16:09 -39.77309 147.17945 2500 ft 136 kts 181°
2026-04-20 16:09 -39.78256 147.17963 2500 ft 136 kts 181°
2026-04-20 16:10 -39.79190 147.17980 2500 ft 136 kts 181°
2026-04-20 16:10 -39.80138 147.17998 2500 ft 136 kts 181°
2026-04-20 16:10 -39.81085 147.18015 2500 ft 136 kts 181°
2026-04-20 16:10 -39.82030 147.18033 2500 ft 136 kts 181°
2026-04-20 16:11 -39.82975 147.18051 2500 ft 136 kts 181°
2026-04-20 16:11 -39.83923 147.18069 2500 ft 136 kts 181°
2026-04-20 16:11 -39.84869 147.18086 2500 ft 136 kts 181°
2026-04-20 16:11 -39.85805 147.18104 2501 ft 136 kts 181°
2026-04-20 16:12 -39.86749 147.18123 2500 ft 136 kts 181°
2026-04-20 16:12 -39.87696 147.18140 2500 ft 136 kts 181°
2026-04-20 16:12 -39.88643 147.18157 2500 ft 136 kts 181°
2026-04-20 16:12 -39.89590 147.18175 2500 ft 136 kts 181°
2026-04-20 16:13 -39.90534 147.18193 2500 ft 136 kts 181°
2026-04-20 16:13 -39.91483 147.18211 2500 ft 136 kts 181°
2026-04-20 16:13 -39.92430 147.18228 2500 ft 136 kts 181°
2026-04-20 16:13 -39.93375 147.18246 2500 ft 136 kts 181°
2026-04-20 16:14 -39.94307 147.18263 2500 ft 136 kts 181°
2026-04-20 16:14 -39.95256 147.18281 2500 ft 136 kts 181°
2026-04-20 16:14 -39.96202 147.18299 2500 ft 136 kts 181°
2026-04-20 16:14 -39.97149 147.18317 2500 ft 136 kts 181°
2026-04-20 16:15 -39.98095 147.18335 2500 ft 136 kts 181°
2026-04-20 16:15 -39.99040 147.18352 2500 ft 136 kts 181°
2026-04-20 16:15 -39.99988 147.18370 2500 ft 136 kts 181°
2026-04-20 16:15 -40.00933 147.18388 2500 ft 136 kts 181°
2026-04-20 16:16 -40.01879 147.18406 2500 ft 136 kts 181°
2026-04-20 16:16 -40.02814 147.18423 2500 ft 136 kts 181°
2026-04-20 16:16 -40.03760 147.18441 2500 ft 136 kts 181°
2026-04-20 16:16 -40.04706 147.18459 2500 ft 136 kts 181°
2026-04-20 16:17 -40.05649 147.18477 2500 ft 136 kts 181°
2026-04-20 16:17 -40.06288 147.18489 2500 ft 136 kts 181°
2026-04-20 16:17 -40.07223 147.18506 2500 ft 136 kts 181°
2026-04-20 16:17 -40.08173 147.18524 2500 ft 136 kts 181°
2026-04-20 16:18 -40.09424 147.18548 2500 ft 136 kts 181°
2026-04-20 16:18 -40.10061 147.18560 2500 ft 136 kts 181°
2026-04-20 16:18 -40.11007 147.18578 2500 ft 136 kts 181°
2026-04-20 16:18 -40.11941 147.18595 2500 ft 136 kts 181°
2026-04-20 16:19 -40.12885 147.18613 2500 ft 136 kts 181°
2026-04-20 16:19 -40.13830 147.18631 2500 ft 136 kts 181°
2026-04-20 16:19 -40.14778 147.18649 2500 ft 136 kts 181°
2026-04-20 16:19 -40.15724 147.18666 2500 ft 136 kts 181°
2026-04-20 16:20 -40.16668 147.18684 2500 ft 136 kts 181°
2026-04-20 16:20 -40.17614 147.18702 2500 ft 136 kts 181°
2026-04-20 16:20 -40.18559 147.18720 2500 ft 136 kts 181°
2026-04-20 16:20 -40.19505 147.18738 2500 ft 136 kts 181°
2026-04-20 16:21 -40.20441 147.18756 2500 ft 136 kts 181°
2026-04-20 16:21 -40.21384 147.18774 2500 ft 136 kts 181°
2026-04-20 16:21 -40.22328 147.18792 2500 ft 136 kts 181°
2026-04-20 16:21 -40.23276 147.18809 2500 ft 136 kts 181°
2026-04-20 16:22 -40.24222 147.18827 2500 ft 136 kts 181°
2026-04-20 16:22 -40.25164 147.18846 2500 ft 136 kts 181°
2026-04-20 16:22 -40.26111 147.18864 2500 ft 136 kts 181°
2026-04-20 16:22 -40.27058 147.18881 2500 ft 136 kts 181°
2026-04-20 16:23 -40.27990 147.18899 2500 ft 136 kts 181°
2026-04-20 16:23 -40.28939 147.18917 2500 ft 136 kts 181°
2026-04-20 16:23 -40.29883 147.18935 2500 ft 136 kts 181°
2026-04-20 16:23 -40.30831 147.18953 2500 ft 136 kts 181°
2026-04-20 16:24 -40.31778 147.18971 2500 ft 136 kts 181°
2026-04-20 16:24 -40.32722 147.18989 2500 ft 136 kts 181°
2026-04-20 16:24 -40.33667 147.19007 2500 ft 136 kts 181°
2026-04-20 16:24 -40.34613 147.19024 2500 ft 136 kts 181°
2026-04-20 16:25 -40.35544 147.19042 2500 ft 136 kts 181°
2026-04-20 16:25 -40.36487 147.19060 2500 ft 135 kts 181°
2026-04-20 16:25 -40.37432 147.19078 2500 ft 136 kts 181°
2026-04-20 16:25 -40.38381 147.19096 2500 ft 136 kts 181°
2026-04-20 16:26 -40.39327 147.19114 2500 ft 136 kts 181°
2026-04-20 16:26 -40.40270 147.19132 2500 ft 135 kts 181°
2026-04-20 16:26 -40.41214 147.19151 2501 ft 135 kts 181°
2026-04-20 16:26 -40.42145 147.19169 2500 ft 136 kts 181°
2026-04-20 16:27 -40.43090 147.19188 2500 ft 136 kts 181°
2026-04-20 16:27 -40.44036 147.19206 2500 ft 135 kts 181°
2026-04-20 16:27 -40.44980 147.19223 2500 ft 136 kts 181°
2026-04-20 16:27 -40.45930 147.19241 2500 ft 136 kts 181°
2026-04-20 16:28 -40.46862 147.19259 2500 ft 135 kts 181°
2026-04-20 16:28 -40.47808 147.19277 2500 ft 136 kts 181°
2026-04-20 16:28 -40.48753 147.19295 2500 ft 136 kts 181°
2026-04-20 16:28 -40.49699 147.19312 2500 ft 136 kts 181°
2026-04-20 16:29 -40.50645 147.19330 2500 ft 136 kts 181°
2026-04-20 16:29 -40.51588 147.19348 2500 ft 136 kts 181°
2026-04-20 16:29 -40.52534 147.19366 2500 ft 135 kts 181°
2026-04-20 16:29 -40.53477 147.19384 2500 ft 136 kts 181°
2026-04-20 16:30 -40.54412 147.19402 2500 ft 136 kts 181°
2026-04-20 16:30 -40.55355 147.19420 2500 ft 135 kts 181°
2026-04-20 16:30 -40.56301 147.19438 2500 ft 136 kts 181°
2026-04-20 16:30 -40.57247 147.19456 2500 ft 136 kts 181°
2026-04-20 16:31 -40.58190 147.19474 2500 ft 135 kts 181°
2026-04-20 16:31 -40.59134 147.19492 2500 ft 135 kts 181°
2026-04-20 16:31 -40.60083 147.19511 2500 ft 136 kts 181°
2026-04-20 16:31 -40.61014 147.19528 2500 ft 136 kts 181°
2026-04-20 16:32 -40.61961 147.19546 2500 ft 136 kts 181°
2026-04-20 16:32 -40.62908 147.19564 2500 ft 135 kts 181°
2026-04-20 16:32 -40.63853 147.19582 2500 ft 136 kts 181°
2026-04-20 16:32 -40.64799 147.19600 2500 ft 136 kts 181°
2026-04-20 16:33 -40.65744 147.19618 2500 ft 136 kts 181°
2026-04-20 16:33 -40.66679 147.19636 2500 ft 136 kts 181°
2026-04-20 16:33 -40.67625 147.19655 2500 ft 135 kts 181°
2026-04-20 16:33 -40.68569 147.19673 2500 ft 136 kts 181°
2026-04-20 16:34 -40.69516 147.19691 2500 ft 136 kts 181°
2026-04-20 16:34 -40.70459 147.19709 2500 ft 135 kts 181°
2026-04-20 16:34 -40.71391 147.19727 2500 ft 135 kts 181°
2026-04-20 16:34 -40.72333 147.19745 2500 ft 136 kts 181°
2026-04-20 16:35 -40.73279 147.19763 2500 ft 136 kts 181°
2026-04-20 16:35 -40.74224 147.19781 2500 ft 135 kts 181°
2026-04-20 16:35 -40.75166 147.19800 2500 ft 135 kts 181°
2026-04-20 16:35 -40.76108 147.19818 2500 ft 136 kts 181°
2026-04-20 16:36 -40.77053 147.19836 2500 ft 136 kts 181°
2026-04-20 16:36 -40.77998 147.19854 2500 ft 135 kts 181°
2026-04-20 16:36 -40.78927 147.19872 2500 ft 135 kts 181°
2026-04-20 16:36 -40.79874 147.19890 2500 ft 136 kts 181°
2026-04-20 16:37 -40.80818 147.19908 2500 ft 136 kts 181°
2026-04-20 16:37 -40.81763 147.19926 2500 ft 135 kts 181°
2026-04-20 16:37 -40.82704 147.19945 2500 ft 135 kts 181°
2026-04-20 16:37 -40.83648 147.19963 2500 ft 135 kts 181°
2026-04-20 16:38 -40.84591 147.19981 2500 ft 136 kts 181°
2026-04-20 16:38 -40.85537 147.20000 2500 ft 136 kts 181°
2026-04-20 16:38 -40.86481 147.20018 2500 ft 135 kts 181°
2026-04-20 16:38 -40.87411 147.20036 2500 ft 135 kts 181°
2026-04-20 16:39 -40.88355 147.20054 2500 ft 136 kts 181°
2026-04-20 16:39 -40.89298 147.20072 2500 ft 135 kts 181°
2026-04-20 16:39 -40.90243 147.20090 2500 ft 135 kts 181°
2026-04-20 16:39 -40.91187 147.20109 2500 ft 136 kts 181°
2026-04-20 16:40 -40.92132 147.20127 2500 ft 136 kts 181°
2026-04-20 16:40 -40.93076 147.20145 2500 ft 135 kts 181°
2026-04-20 16:40 -40.94017 147.20163 2500 ft 135 kts 181°
2026-04-20 16:40 -40.94949 147.20181 2500 ft 135 kts 181°
2026-04-20 16:41 -40.95892 147.20199 2500 ft 136 kts 181°
2026-04-20 16:41 -40.96838 147.20217 2500 ft 136 kts 181°
2026-04-20 16:41 -40.97783 147.20236 2500 ft 135 kts 181°
2026-04-20 16:41 -40.98718 147.20254 2500 ft 136 kts 181°
2026-04-20 16:42 -40.99661 147.20272 2500 ft 136 kts 181°
2026-04-20 16:42 -41.00606 147.20291 2501 ft 135 kts 181°
2026-04-20 16:42 -41.01548 147.20310 2500 ft 135 kts 181°
2026-04-20 16:42 -41.02491 147.20329 2500 ft 135 kts 181°
2026-04-20 16:43 -41.03435 147.20347 2499 ft 136 kts 181°
2026-04-20 16:43 -41.04379 147.20365 2500 ft 136 kts 181°
2026-04-20 16:43 -41.05320 147.20383 2500 ft 135 kts 181°
2026-04-20 16:43 -41.06262 147.20401 2500 ft 135 kts 181°
2026-04-20 16:44 -41.07206 147.20419 2499 ft 136 kts 181°
2026-04-20 16:44 -41.08141 147.20436 2501 ft 136 kts 181°
2026-04-20 16:44 -41.09084 147.20456 2501 ft 135 kts 181°
2026-04-20 16:44 -41.10025 147.20476 2499 ft 135 kts 181°
2026-04-20 16:45 -41.10967 147.20494 2501 ft 136 kts 181°
2026-04-20 16:45 -41.11910 147.20513 2500 ft 135 kts 181°
2026-04-20 16:45 -41.12853 147.20532 2500 ft 135 kts 181°
2026-04-20 16:45 -41.13799 147.20551 2501 ft 135 kts 181°
2026-04-20 16:46 -41.14743 147.20570 2500 ft 135 kts 181°
2026-04-20 16:46 -41.15686 147.20588 2499 ft 136 kts 181°
2026-04-20 16:46 -41.16632 147.20605 2500 ft 136 kts 181°
2026-04-20 16:46 -41.17567 147.20622 2501 ft 136 kts 181°
2026-04-20 16:47 -41.18511 147.20641 2499 ft 136 kts 181°
2026-04-20 16:47 -41.19461 147.20660 2501 ft 136 kts 181°
2026-04-20 16:47 -41.20392 147.20679 2500 ft 135 kts 181°
2026-04-20 16:47 -41.21336 147.20697 2499 ft 136 kts 181°
2026-04-20 16:48 -41.22285 147.20715 2501 ft 136 kts 181°
2026-04-20 16:48 -41.23229 147.20734 2501 ft 135 kts 181°
2026-04-20 16:48 -41.24173 147.20753 2500 ft 135 kts 181°
2026-04-20 16:48 -41.25115 147.20772 2500 ft 135 kts 181°
2026-04-20 16:49 -41.26058 147.20790 2500 ft 136 kts 181°
2026-04-20 16:49 -41.27004 147.20808 2500 ft 136 kts 181°
2026-04-20 16:49 -41.27940 147.20825 2500 ft 136 kts 181°
2026-04-20 16:49 -41.28885 147.20843 2500 ft 135 kts 181°
2026-04-20 16:50 -41.29827 147.20862 2500 ft 135 kts 181°
2026-04-20 16:50 -41.30773 147.20880 2499 ft 136 kts 181°
2026-04-20 16:50 -41.31720 147.20898 2500 ft 136 kts 181°
2026-04-20 16:50 -41.32665 147.20917 2500 ft 135 kts 181°
2026-04-20 16:51 -41.33610 147.20935 2500 ft 136 kts 181°
2026-04-20 16:51 -41.34559 147.20954 2500 ft 136 kts 181°
2026-04-20 16:51 -41.35505 147.20973 2501 ft 136 kts 180°
2026-04-20 16:51 -41.36449 147.20992 2500 ft 136 kts 181°
2026-04-20 16:52 -41.37393 147.21010 2499 ft 136 kts 181°
2026-04-20 16:52 -41.38339 147.21028 2501 ft 136 kts 181°
2026-04-20 16:52 -41.39274 147.21047 2500 ft 136 kts 181°
2026-04-20 16:52 -41.40217 147.21067 2500 ft 136 kts 181°
2026-04-20 16:53 -41.41163 147.21085 2500 ft 135 kts 181°
2026-04-20 16:53 -41.42107 147.21103 2500 ft 136 kts 181°
2026-04-20 16:53 -41.43051 147.21122 2500 ft 135 kts 181°
2026-04-20 16:53 -41.43995 147.21141 2501 ft 135 kts 181°
2026-04-20 16:54 -41.44922 147.21160 2499 ft 135 kts 181°
2026-04-20 16:54 -41.45867 147.21178 2500 ft 135 kts 181°
2026-04-20 16:54 -41.46811 147.21196 2500 ft 135 kts 181°
2026-04-20 16:54 -41.47753 147.21214 2504 ft 134 kts 181°
2026-04-20 16:55 -41.48650 147.21235 2401 ft 124 kts 183°
2026-04-20 16:55 -41.49484 147.21104 2201 ft 118 kts 194°
2026-04-20 16:55 -41.50228 147.20801 1940 ft 106 kts 205°
2026-04-20 16:55 -41.50857 147.20383 1654 ft 97 kts 212°
2026-04-20 16:56 -41.51398 147.19932 1377 ft 83 kts 215°
2026-04-20 16:56 -41.51862 147.19675 1167 ft 65 kts 196°
2026-04-20 16:56 -41.52268 147.19652 944 ft 54 kts 178°
2026-04-20 16:56 -41.52633 147.19733 842 ft 53 kts 171°
2026-04-20 16:57 -41.52989 147.19882 803 ft 54 kts 162°
2026-04-20 16:57 -41.53328 147.20092 752 ft 54 kts 155°
2026-04-20 16:57 -41.53667 147.20354 689 ft 58 kts 148°
2026-04-20 16:57 -41.53968 147.20618 634 ft 38 kts 164°
2026-04-20 16:58 -41.54139 147.20658 590 ft 15 kts 187°
2026-04-20 16:58 -41.54197 147.20648 577 ft 6 kts 189°
2026-04-20 16:58 -41.54221 147.20641 563 ft 0 kts 188°